Location: Taukkyan
(23.1052°N, 94.0030°E)
Time: 11:57:54
(UTC+00:00)

Cosmos 1386 Rocket - Pass Details

Date: 06 July 2020
Orbit: 929 x 1007 km, 83.0° (Epoch: 14 August)

Event Time Altitude Azimuth Distance (km) Brightness Sun altitude
Exits shadow 14:02:31 16° 172° (S) 2,323 6.1 -18.5°
Maximum altitude 14:07:37 67° 92° (E) 1,074 4.5 -19.4°
Drops below altitude 10° 14:13:57 10° 11° (NNE) 2,780 7.2 -20.6°
Sets 14:16:31 0° 9° (N) 3,733 7.9 -21.0°
